This is the latest recevied weather packets stored in our database for station/object K7NDG. If no packets are shown the sender has not sent any weather packets the latest 1 day(s).
| Time | Temp. | Humidity | Pressure | Rain* | Wind** | Luminosity | Snow |
|---|---|---|---|---|---|---|---|
| 1778032216 | 15° C | 73% | 1016.8 hPa | 0 mm | - | 55 W/m² | - |
| 1778031609 | 15.56° C | 73% | 1016.7 hPa | 0 mm | - | 72 W/m² | - |
| 1778031004 | 16.11° C | 71% | 1016.5 hPa | 0 mm | - | 73 W/m² | - |
| 1778030397 | 16.67° C | 70% | 1016.7 hPa | 0 mm | - | 89 W/m² | - |
| 1778029790 | 16.67° C | 70% | 1016.6 hPa | 0 mm | - | 114 W/m² | - |
| 1778029490 | 16.67° C | 70% | 1016.4 hPa | 0 mm | - | 120 W/m² | - |
| 1778029185 | 16.67° C | 70% | 1016.6 hPa | 0 mm | - | 99 W/m² | - |
| 1778028883 | 16.67° C | 69% | 1016.5 hPa | 0 mm | - | 115 W/m² | - |
| 1778028578 | 17.22° C | 68% | 1016.5 hPa | 0 mm | - | 111 W/m² | - |
| 1778028276 | 17.22° C | 68% | 1016.5 hPa | 0 mm | - | 139 W/m² | - |
| 1778027972 | 17.78° C | 68% | 1016.6 hPa | 0 mm | - | 146 W/m² | - |
| 1778027669 | 17.78° C | 67% | 1016.4 hPa | 0 mm | - | 166 W/m² | - |
| 1778027366 | 17.78° C | 66% | 1016.5 hPa | 0 mm | - | 168 W/m² | - |
| 1778027061 | 17.78° C | 67% | 1016.6 hPa | 0 mm | - | 146 W/m² | - |
| 1778026455 | 17.78° C | 67% | 1016.8 hPa | 0 mm | - | 157 W/m² | - |
| 1778026152 | 17.78° C | 65% | 1016.5 hPa | 0 mm | - | 148 W/m² | - |
| 1778023730 | 18.33° C | 67% | 1016.9 hPa | 0 mm | - | 284 W/m² | - |
| 1778023428 | 17.78° C | 68% | 1016.8 hPa | 0 mm | - | 252 W/m² | - |
| 1778023124 | 18.33° C | 68% | 1017 hPa | 0 mm | - | 206 W/m² | - |
| 1778021913 | 17.78° C | 69% | 1016.9 hPa | 0 mm | - | 257 W/m² | - |
| 1778021004 | 17.78° C | 71% | 1017.3 hPa | 0 mm | - | 242 W/m² | - |
| 1778020093 | 17.78° C | 71% | 1017.2 hPa | 0 mm | - | 257 W/m² | - |
| 1778019487 | 17.22° C | 71% | 1017.1 hPa | 0 mm | - | 247 W/m² | - |
| 1778017065 | 16.67° C | 72% | 1017.7 hPa | 0 mm | - | 235 W/m² | - |
| 1778016458 | 17.22° C | 72% | 1017.7 hPa | 0 mm | - | 219 W/m² | - |
* Rain latest hour (hover to see other rain measurements)
** Current wind speed in m/s (hover to see current wind gust speed)